This is the latest recevied weather packets stored in our database for station/object KC9EGS. If no packets are shown the sender has not sent any weather packets the latest 10 day(s).
| Time | Temp. | Humidity | Pressure | Rain* | Wind** | Luminosity | Snow |
|---|---|---|---|---|---|---|---|
| 1777861513 | 11.67° C | 39% | 997.6 hPa | 0 mm | - | - | - |
| 1777860614 | 13.33° C | 33% | 997.6 hPa | 0 mm | - | - | - |
| 1777859713 | 14.44° C | 34% | 997.6 hPa | 0 mm | - | - | - |
| 1777859118 | 15.56° C | 28% | 997.6 hPa | 0 mm | - | - | - |
| 1777858814 | 15.56° C | 27% | 997.3 hPa | 0 mm | - | - | - |
| 1777858519 | 16.11° C | 27% | 997.3 hPa | 0 mm | - | - | - |
| 1777857915 | 16.11° C | 26% | 997.3 hPa | 0 mm | - | - | - |
| 1777857320 | 16.67° C | 24% | 997.3 hPa | 0 mm | - | - | - |
| 1777857013 | 16.67° C | 23% | 997.4 hPa | 0 mm | - | - | - |
| 1777856114 | 17.78° C | 23% | 997.2 hPa | 0 mm | - | - | - |
| 1777855520 | 17.78° C | 23% | 997.2 hPa | 0 mm | - | - | - |
| 1777855213 | 18.33° C | 24% | 997.2 hPa | 0 mm | - | - | - |
| 1777854920 | 18.33° C | 23% | 997.2 hPa | 0 mm | - | - | - |
| 1777854313 | 18.89° C | 23% | 996.8 hPa | 0 mm | - | - | - |
| 1777853719 | 18.89° C | 23% | 996.8 hPa | 0 mm | - | - | - |
| 1777853414 | 18.89° C | 22% | 996.7 hPa | 0 mm | - | - | - |
| 1777853120 | 19.44° C | 22% | 996.7 hPa | 0 mm | - | - | - |
| 1777852514 | 19.44° C | 22% | 996.6 hPa | 0 mm | - | - | - |
| 1777851919 | 19.44° C | 23% | 996.6 hPa | 0 mm | - | - | - |
| 1777851614 | 19.44° C | 23% | 996.5 hPa | 0 mm | - | - | - |
| 1777851320 | 19.44° C | 22% | 996.5 hPa | 0 mm | - | - | - |
| 1777850715 | 20° C | 22% | 996.4 hPa | 0 mm | - | - | - |
| 1777849814 | 20° C | 23% | 996.2 hPa | 0 mm | - | - | - |
| 1777849519 | 20° C | 24% | 996.2 hPa | 0 mm | - | - | - |
| 1777848913 | 20° C | 25% | 996.3 hPa | 0 mm | - | - | - |
* Rain latest hour (hover to see other rain measurements)
** Current wind speed in m/s (hover to see current wind gust speed)